Location: Grasslands National Park East Block
(49.0708°N, 106.5295°W)
Time: 04:05:06
(UTC-06:00)

Vanguard 1 - Pass Details

Date: 27 September 2019
Orbit: 653 x 3830 km, 34.2° (Epoch: 18 October)

Event Time Altitude Azimuth Distance (km) Brightness Sun altitude
Rises 07:47:36 0° 279° (W) 7,875 14.0 7.0°
Reaches altitude 10° 07:54:49 10° 269° (W) 6,572 13.7 8.1°
Maximum altitude 08:08:38 24° 226° (SW) 4,528 13.2 10.3°
Drops below altitude 10° 08:18:34 10° 179° (S) 4,587 13.8 11.9°
Sets 08:22:27 0° 165° (SSE) 5,126 14.2 12.5°
